Location: Azul
(36.7830°S, 59.8500°W)
Time: 11:28:43
(UTC-03:00)

ISS - Visible Passes

Search period start: 11 December 2018 00:00
Search period end: 21 December 2018 00:00
Orbit: 401 x 408 km, 51.6° (Epoch: 12 December)

Date Brightness Start Highest point End Pass type
(mag) Time Alt. Az. Time Alt. Az. Time Alt. Az.
11 Dec -0.7 02:29:10 10° SW 02:30:12 11° SSW 02:31:20 10° S visible
12 Dec -0.7 01:38:25 15° S 01:38:25 15° S 01:39:52 10° SSE visible
13 Dec -0.5 00:47:33 13° SSE 00:47:33 13° SSE 00:48:06 10° SSE visible
14 Dec -0.4 01:29:53 10° SSW 01:30:09 10° SSW 01:30:26 10° SSW visible
14 Dec -0.6 04:43:56 10° S 04:45:48 14° SSE 04:47:41 10° ESE visible
15 Dec -0.6 00:37:36 14° SSW 00:37:36 14° SSW 00:39:27 10° S visible
15 Dec 0.0 03:52:56 10° SSE 03:53:15 10° SSE 03:53:36 10° SSE visible
15 Dec -1.1 23:45:08 20° SSW 23:45:08 20° SSW 23:47:43 10° SSE visible
16 Dec -1.1 04:35:17 10° SSW 04:38:06 24° SSE 04:40:54 10° E visible
16 Dec -2.6 21:13:47 10° N 21:16:22 21° NE 21:18:59 10° ESE visible
16 Dec -2.0 22:49:38 10° W 22:52:42 33° SW 22:55:47 10° SSE visible
17 Dec -0.5 03:43:27 10° SSW 03:45:37 16° SSE 03:47:48 10° ESE visible
17 Dec -3.4 21:57:05 10° WNW 22:00:22 65° SW 22:03:41 10° SE visible
17 Dec -0.2 23:35:55 10° SW 23:37:23 12° SSW 23:38:52 10° S visible
18 Dec -0.1 02:51:56 10° S 02:53:04 11° SSE 02:54:11 10° SE visible
18 Dec -2.8 04:26:53 10° SW 04:30:11 52° SE 04:33:27 10° ENE visible
18 Dec -3.8 21:04:51 10° NW 21:08:06 59° NE 21:11:24 10° SE visible
18 Dec -0.7 22:42:29 10° WSW 22:44:50 18° SSW 22:47:13 10° SSE visible
19 Dec -1.6 03:34:49 10° SSW 03:37:48 29° SSE 03:40:45 10° E visible
19 Dec -1.5 21:49:27 10° W 21:52:21 28° SSW 21:55:18 10° SSE visible
20 Dec -0.8 02:42:54 10° SSW 02:45:19 18° SSE 02:47:44 10° ESE visible
20 Dec -3.8 04:18:44 10° WSW 04:22:02 57° NW 04:25:18 10° NE visible
20 Dec -2.7 20:56:43 10° WNW 20:59:57 50° SW 21:03:13 10° SE visible
20 Dec -0.2 22:36:06 10° SW 22:37:05 11° SSW 22:38:04 10° S visible
